Regional Weather Roundup
Issued by NWS Green Bay, WI

Home | Current Version | Previous Version | Text Only | Print | Product List | Glossary On
Versions: 1 2 3 4 5 6 7 8 9 10 11 12 13 14 15 16 17 18 19 20 21 22 23 24 25 26 27 28 29 30 31 32 33 34 35 36 37 38 39 40 41 42 43 44 45 46 47 48 49 50
000
ASUS43 KGRB 231210
RWRGRB

NORTH-CENTRAL AND NORTHEAST WISCONSIN REGIONAL WEATHER ROUNDUP
NATIONAL WEATHER SERVICE GREEN BAY WI
700 AM CDT SAT AUG 23 2014

WIZ005-009-010>012-018-019-231300-
NORTH CENTRAL WISCONSIN

CITY           SKY/WX    TMP DP  RH WIND       PRES   REMARKS
IRONWOOD       NOT AVBL
MANITOWISH WTR CLOUDY    64  64 100 N5        30.05R FOG
ARBOR VITAE    CLOUDY    67  65  93 CALM      30.04S FOG
EAGLE RIVER    CLOUDY    67  67 100 CALM      30.05R FOG
LAND O LAKES   CLOUDY    65  65 100 N3        30.07R FOG
RHINELANDER    CLOUDY    68  68 100 CALM      30.05R FOG
PHILLIPS       CLOUDY    64  64 100 NE5       30.04R FOG
ANTIGO         FOG       67  67 100 E3        30.04R VSB 1/4
TOMAHAWK       FOG       67  66  96 CALM      30.04S VSB 1/2
MERRILL        CLOUDY    69  69 100 E3        30.02R FOG
$$

WIZ013-073-231300-
NORTHEAST WISCONSIN

CITY           SKY/WX    TMP DP  RH WIND       PRES   REMARKS
IRON MOUNTAIN  CLOUDY    67  65  93 E3        30.04R FOG
MARINETTE      CLOUDY    68  66  94 E7        30.01R
OCONTO         CLOUDY    67  67 100 CALM      30.00S
$$

WIZ017-030-035>037-045-231300-
CENTRAL WISCONSIN

CITY           SKY/WX    TMP DP  RH WIND       PRES   REMARKS
MEDFORD        FOG       68  68 100 NE3       30.02R VSB 1/4
WAUSAU         FOG       69  69 100 E5        30.00R VSB 1/2
MOSINEE        FOG       70  70 100 E3        30.02R VSB 1/8
MARSHFIELD     FOG       71  70  96 E3        30.01R VSB 1/4
WISC RAPIDS    FOG       71  70  96 E3        30.01R VSB 1/2
STEVENS POINT  FOG       68  68  99 E5        30.01S VSB 1/4
WAUPACA        FOG       71  70  95 CALM      29.99F VSB 1/4
SHAWANO        CLOUDY    71  68  92 E5        30.01R FOG
CLINTONVILLE   FOG       68  68 100 E3        30.01R VSB 1/4
$$

WIZ038-039-048-051-231300-
FOX VALLEY

CITY           SKY/WX    TMP DP  RH WIND       PRES   REMARKS
NWS GREEN BAY  CLOUDY    69  68  96 NE5       30.00R FOG
APPLETON       FOG       68  68 100 VRB6      30.00R VSB 1/2
OSHKOSH        CLOUDY    72  70  93 E3        29.98R FOG
FOND DU LAC    CLOUDY    71  68  90 MISG      29.99S FOG
$$

WIZ022-050-052-231300-
EAST CENTRAL WISCONSIN

CITY           SKY/WX    TMP DP  RH WIND       PRES   REMARKS
STURGEON BAY   PTCLDY    66  64  94 SE6       30.02S
MANITOWOC      CLOUDY    69  68  96 SE6       30.01R FOG
SHEBOYGAN      CLOUDY    69  67  93 E5        30.00R FOG
$$

LMZ563-521-522-541>543-231300-
LAKESHORE

STATION/POSITION TIME  TEMP    WIND        PRES    VSBY  WAVE
                       AIR SEA DIR/SP/G                  HT/PER
                 (UTC) (F)     (DEG/KT/KT) (MB)    (MI)  (FT/S)
SHEBOYGAN LKSHOR 1200   68 66   CALM  /  1 1016.0R
KEWAUNEE LKSHORE 1200   67     120/  4/  5 1015.6R
NORTHPORT PIER   1200   67     150/  6/  8 1016.9S
N MID LAKE BUOY  1200   67 65  120/  8/  8 1016.6R         0
S GREEN BAY BUOY 1200   70     VRB  6      1017.0S
SISTER BAY LKSHO 1100   68     140/  6/  8   N/A
CHAMBERS ISLAND  1200   68     100/  3/  4 1016.6S
MENOMINEE LKSHOR 1200   70     120/  3/  4 1017.0R
$$


USA.gov is the U.S. government's official web portal to all federal, state and local government web resources and services.